Bullock, NC

3:34 AM EST on February 08, 2016 (GMT -0500)
Henderson-Oxford

Weather History for KHNZ - May, 2014

Change the Weather History Date:

Friday, May 2, 2014

  Actual Average (KTDF) Record (KTDF)
Temperature  
Mean Temperature 61 °F -  
Max Temperature 68 °F 77 °F 89 °F (1986)
Min Temperature 54 °F 49 °F 34 °F (1963)
Degree Days  
Heating Degree Days 4    
Growing Degree Days 11 (Base 50)    
Moisture  
Dew Point 40 °F    
Average Humidity 49    
Maximum Humidity 91    
Minimum Humidity 30    
Precipitation  
Precipitation 0.00 in - - ()
Sea Level Pressure  
Sea Level Pressure 29.90 in    
Wind  
Wind Speed 5 mph (WSW)    
Max Wind Speed 10 mph    
Max Gust Speed 17 mph    
Visibility 10 miles    
Events      
Averages and records for this station are not official NWS values.
T = Trace of Precipitation, MM = Missing Value Source: NWS Daily Summary

Daily Weather History Graph

Daily Weather History Graph

Search for Another Location

Airport or City:

Trip Planner

Search our weather history database for the weather conditions in past years. The results will help you decide how hot, cold, wet, or windy it might be!

Date:

Astronomy

May. 02, 2014 Rise Set
Actual Time 6:19 AM EDT 8:02 PM EDT
Civil Twilight 5:52 AM EDT 8:30 PM EDT
Nautical Twilight 5:18 AM EDT 9:04 PM EDT
Astronomical Twilight 4:43 AM EDT 9:39 PM EDT
Moon 8:57 AM EDT (5/2) 11:22 PM EDT (5/2)
Length of Visible Light 14h 38m
Length of Day
13h 43m
Waxing Crescent, 12% of the Moon is Illuminated
May 2
Waxing Crescent
May 6
First Quarter
May 14
Full
May 21
Last Quarter
May 28
New

Hourly Weather History & Observations

Time (EDT) Temp. Dew Point Humidity Pressure Visibility Wind Dir Wind Speed Gust Speed Precip Events Conditions
12:15 AM 63.0 °F 60.4 °F 91% 29.82 in 10.0 mi SW 5.8 mph - N/A   Clear
12:35 AM 62.8 °F 59.9 °F 90% 29.83 in 10.0 mi SW 8.1 mph - N/A   Clear
12:55 AM 62.4 °F 59.0 °F 89% 29.84 in 10.0 mi SW 6.9 mph - N/A   Clear
1:15 AM 61.7 °F 58.1 °F 88% 29.85 in 10.0 mi WSW 4.6 mph - N/A   Clear
1:35 AM 61.0 °F 57.4 °F 88% 29.85 in 10.0 mi SW 6.9 mph - N/A   Clear
1:55 AM 60.6 °F 56.5 °F 86% 29.86 in 10.0 mi West 3.5 mph - N/A   Clear
2:15 AM 59.9 °F 55.2 °F 84% 29.85 in 10.0 mi Calm Calm - N/A   Clear
2:35 AM 59.0 °F 53.1 °F 81% 29.86 in 10.0 mi Calm Calm - N/A   Clear
2:55 AM 58.6 °F 48.4 °F 69% 29.86 in 10.0 mi WNW 8.1 mph - N/A   Clear
3:15 AM 58.1 °F 41.2 °F 53% 29.87 in 10.0 mi NW 5.8 mph - N/A   Clear
3:35 AM 57.7 °F 39.4 °F 50% 29.87 in 10.0 mi WNW 5.8 mph - N/A   Clear
3:55 AM 57.2 °F 38.8 °F 50% 29.89 in 10.0 mi WNW 8.1 mph - N/A   Clear
4:15 AM 57.0 °F 38.1 °F 49% 29.89 in 10.0 mi WNW 8.1 mph - N/A   Clear
4:35 AM 57.2 °F 37.0 °F 47% 29.89 in 10.0 mi WNW 6.9 mph - N/A   Clear
4:55 AM 56.8 °F 36.5 °F 47% 29.90 in 10.0 mi WNW 6.9 mph - N/A   Clear
5:15 AM 55.9 °F 36.7 °F 48% 29.90 in 10.0 mi WNW 4.6 mph - N/A   Clear
5:35 AM 54.9 °F 36.7 °F 50% 29.91 in 10.0 mi NW 4.6 mph - N/A   Clear
5:55 AM 54.3 °F 36.7 °F 51% 29.91 in 10.0 mi WNW 3.5 mph - N/A   Clear
6:15 AM 54.3 °F 36.7 °F 51% 29.91 in 10.0 mi WNW 3.5 mph - N/A   Clear
6:35 AM 54.5 °F 36.5 °F 51% 29.92 in 10.0 mi WNW 5.8 mph - N/A   Clear
6:55 AM 54.9 °F 36.9 °F 51% 29.93 in 10.0 mi WNW 3.5 mph - N/A   Clear
7:15 AM 55.6 °F 37.6 °F 51% 29.93 in 10.0 mi WNW 4.6 mph - N/A   Clear
7:35 AM 55.9 °F 38.1 °F 51% 29.93 in 10.0 mi WNW 3.5 mph - N/A   Clear
7:55 AM 58.3 °F 38.5 °F 48% 29.93 in 10.0 mi WNW 3.5 mph - N/A   Clear
8:15 AM 59.0 °F 38.3 °F 46% 29.94 in 10.0 mi NW 5.8 mph - N/A   Clear
8:35 AM 59.0 °F 38.7 °F 47% 29.94 in 10.0 mi Calm Calm - N/A   Clear
8:55 AM 59.7 °F 37.9 °F 44% 29.94 in 10.0 mi WNW 5.8 mph - N/A   Clear
9:15 AM 60.8 °F 37.9 °F 43% 29.94 in 10.0 mi NW 3.5 mph - N/A   Clear
9:35 AM 61.7 °F 36.7 °F 39% 29.94 in 10.0 mi Calm Calm - N/A   Clear
9:55 AM 64.4 °F 35.4 °F 34% 29.94 in 10.0 mi North 6.9 mph - N/A   Clear
10:15 AM 64.6 °F 33.3 °F 31% 29.95 in 10.0 mi NNW 6.9 mph - N/A   Clear
10:35 AM 64.8 °F 33.3 °F 31% 29.95 in 10.0 mi NNW 5.8 mph - N/A   Clear
10:55 AM 64.0 °F 32.7 °F 31% 29.95 in 10.0 mi West 9.2 mph - N/A   Clear
11:15 AM 63.1 °F 32.4 °F 32% 29.95 in 10.0 mi WNW 5.8 mph - N/A   Clear
11:35 AM 63.1 °F 32.7 °F 32% 29.95 in 10.0 mi NW 5.8 mph - N/A   Clear
11:55 AM 62.6 °F 32.9 °F 33% 29.95 in 10.0 mi WNW 3.5 mph - N/A   Clear
12:15 PM 62.6 °F 34.5 °F 35% 29.95 in 10.0 mi West 3.5 mph - N/A   Scattered Clouds
12:35 PM 62.6 °F 34.0 °F 34% 29.94 in 10.0 mi Calm Calm - N/A   Scattered Clouds
12:55 PM 62.6 °F 33.6 °F 34% 29.92 in 10.0 mi Calm Calm - N/A   Clear
1:15 PM 62.4 °F 33.8 °F 34% 29.90 in 10.0 mi Calm Calm - N/A   Clear
1:35 PM 63.3 °F 34.3 °F 34% 29.90 in 10.0 mi West 3.5 mph - N/A   Clear
1:55 PM 63.5 °F 33.6 °F 33% 29.90 in 10.0 mi Calm Calm - N/A   Clear
2:15 PM 63.7 °F 34.5 °F 34% 29.90 in 10.0 mi West 3.5 mph - N/A   Clear
2:35 PM 64.6 °F 35.6 °F 34% 29.90 in 10.0 mi WSW 4.6 mph - N/A   Clear
2:55 PM 66.9 °F 35.8 °F 32% 29.91 in 10.0 mi WSW 8.1 mph - N/A   Clear
3:15 PM 67.1 °F 35.8 °F 31% 29.90 in 10.0 mi SW 9.2 mph 16.1 mph N/A   Clear
3:35 PM 68.2 °F 37.2 °F 32% 29.89 in 10.0 mi SW 9.2 mph 17.3 mph N/A   Clear
3:55 PM 68.2 °F 35.4 °F 30% 29.88 in 10.0 mi SSW 5.8 mph - N/A   Clear
4:15 PM 67.5 °F 35.4 °F 31% 29.88 in 10.0 mi SSW 8.1 mph - N/A   Clear
4:35 PM 68.2 °F 37.4 °F 32% 29.88 in 10.0 mi SSW 10.4 mph - N/A   Clear
4:55 PM 68.2 °F 36.9 °F 32% 29.87 in 10.0 mi SW 10.4 mph - N/A   Clear
5:15 PM 68.0 °F 36.5 °F 31% 29.87 in 10.0 mi SSW 8.1 mph - N/A   Clear
5:35 PM 68.0 °F 37.6 °F 33% 29.88 in 10.0 mi SSW 10.4 mph - N/A   Scattered Clouds
5:55 PM 67.8 °F 36.7 °F 32% 29.88 in 10.0 mi South 8.1 mph - N/A   Scattered Clouds
6:15 PM 67.3 °F 36.9 °F 33% 29.87 in 10.0 mi SSW 9.2 mph - N/A   Clear
6:35 PM 67.1 °F 36.7 °F 33% 29.87 in 10.0 mi South 8.1 mph - N/A   Clear
6:55 PM 64.8 °F 37.6 °F 37% 29.87 in 10.0 mi South 6.9 mph - N/A   Clear
7:15 PM 63.9 °F 39.4 °F 41% 29.88 in 10.0 mi South 4.6 mph - N/A   Clear
7:35 PM 62.8 °F 40.5 °F 44% 29.88 in 10.0 mi South 5.8 mph - N/A   Clear
7:55 PM 61.7 °F 41.2 °F 47% 29.88 in 10.0 mi South 5.8 mph - N/A   Clear
8:15 PM 60.8 °F 41.4 °F 49% 29.87 in 10.0 mi South 4.6 mph - N/A   Clear
8:35 PM 60.1 °F 41.7 °F 51% 29.87 in 10.0 mi South 4.6 mph - N/A   Clear
8:55 PM 58.8 °F 42.4 °F 55% 29.87 in 10.0 mi South 4.6 mph - N/A   Clear
9:15 PM 58.5 °F 42.3 °F 55% 29.88 in 10.0 mi South 5.8 mph - N/A   Clear
9:35 PM 58.1 °F 42.6 °F 56% 29.89 in 10.0 mi South 5.8 mph - N/A   Clear
9:55 PM 57.0 °F 43.3 °F 60% 29.89 in 10.0 mi SSW 5.8 mph - N/A   Clear
10:15 PM 56.5 °F 43.2 °F 61% 29.90 in 10.0 mi South 5.8 mph - N/A   Clear
10:35 PM 56.7 °F 43.2 °F 61% 29.90 in 10.0 mi South 3.5 mph - N/A   Clear
10:55 PM 55.6 °F 44.1 °F 65% 29.90 in 10.0 mi SSW 5.8 mph - N/A   Clear
11:15 PM 55.6 °F 43.7 °F 64% 29.89 in 10.0 mi SSW 4.6 mph - N/A   Clear
11:35 PM 54.7 °F 44.4 °F 68% 29.89 in 10.0 mi SW 3.5 mph - N/A   Clear
11:55 PM 54.5 °F 45.0 °F 70% 29.89 in 10.0 mi SSW 3.5 mph - N/A   Clear